Temp
73 75 75 66 64 73 63 62 61 61 64 69 70 71 75 76 76 75 75 79 75 80 80 82 77 81 82 82 81 81 82 82
71 74 72 72 76 63 64 52 52 59 59 67 64 66 72 74 75 75 76 77 77 73 74 74 77 76 81 84 82 82 82 83
68 68 68 68 67 66 69 65 59 57 61 67 67 65 70 72 75 74 75 76 77 76 73 72 77 75 77 78 78 82 81 81
64 68 69 70 69 70 63 57 63 64 64 67 68 68 68 70 71 74 75 75 75 77 76 72 70 71 76 78 75 80 81 77
59 65 67 65 65 66 65 66 62 61 65 65 66 64 67 65 67 69 70 70 72 72 74 75 72 69 70 73 75 73 76 78
56 59 62 61 62 64 65 64 65 66 66 59 62 62 63 65 67 69 70 71 72 70 72 73 73 70 69 70 71 70 73 73
59 61 60 60 60 61 61 66 64 69 67 68 65 64 64 64 64 66 65 68 70 71 71 72 72 73 73 71 69 68 69 69
56 60 60 59 61 63 62 64 64 65 67 70 69 66 63 63 63 63 64 64 66 69 70 71 71 72 72 70 69 69 68 68
53 56 58 55 59 60 60 63 64 62 67 70 63 62 63 62 64 63 64 64 64 65 64 65 67 68 67 68 69 69 69 69
51 54 46 59 64 63 61 61 64 63 62 65 64 65 66 68 64 63 63 61 62 60 60 60 61 62 63 64 64 64 64 65
48 50 54 58 60 59 58 59 63 62 61 62 62 63 59 66 70 65 62 60 60 59 58 59 59 61 61 63 63 63 62 62
50 46 45 57 62 67 63 56 64 63 61 59 62 58 59 62 66 63 60 59 58 58 58 57 57 58 60 59 60 63 63 63
51 49 54 58 62 65 53 55 64 65 61 62 61 63 64 66 63 62 60 58 58 57 56 57 60 62 61 64 62 64 65 65
50 48 45 62 64 57 57 63 63 62 58 57 59 64 65 63 61 58 57 57 58 57 57 59 61 62 59 57 61 63 63 63
53 52 58 61 59 62 61 60 61 61 60 59 62 62 61 57 58 58 58 60 62 60 59 62 63 65 62 59 61 61 61 61
53 56 58 60 63 61 61 62 61 63 61 61 60 60 56 55 60 62 63 62 63 63 61 59 60 61 60 60 61 61 59 59
53 55 59 60 61 59 60 62 62 62 61 58 55 54 56 52 54 60 61 61 62 61 60 58 59 59 60 60 61 60 59 60
54 55 57 57 60 62 61 62 63 61 59 60 55 53 54 53 52 52 54 57 58 59 59 58 57 57 58 59 60 60 59 60
57 59 59 61 62 63 62 62 63 62 61 58 58 57 55 53 53 53 53 54 55 55 58 57 58 58 58 59 59 58 58 57
MSLP
1009.00 1008.82 1008.95 1009.44 1009.24 1009.24 1009.22 1009.94 1009.52 1009.54 1009.51 1009.34 1009.59 1009.59 1009.75 1010.25 1011.29 1012.05 1012.66 1013.30 1014.05 1014.70 1015.34 1015.94 1016.61 1016.92 1017.58 1018.23 1019.04 1019.63 1020.14 1020.57
1009.04 1008.96 1009.22 1008.84 1008.80 1009.23 1009.14 1008.75 1008.68 1008.94 1009.19 1008.71 1009.50 1009.74 1009.90 1010.19 1010.73 1011.73 1012.54 1013.22 1014.06 1014.82 1015.53 1016.28 1016.89 1017.36 1017.81 1018.08 1018.56 1019.28 1019.90 1020.30
1009.45 1008.92 1008.49 1009.12 1008.80 1008.89 1008.50 1008.49 1007.81 1008.19 1008.53 1009.09 1009.56 1010.28 1010.22 1010.56 1010.86 1011.44 1012.23 1012.98 1013.69 1014.70 1015.44 1015.88 1016.98 1017.30 1017.99 1018.36 1018.82 1019.02 1019.57 1019.94
1009.44 1009.68 1009.66 1009.24 1008.72 1008.57 1007.86 1008.42 1008.44 1008.30 1008.81 1009.90 1010.39 1010.95 1011.33 1011.46 1011.81 1012.15 1012.70 1013.34 1013.85 1014.62 1015.64 1016.43 1016.80 1017.73 1018.47 1018.72 1018.91 1018.98 1019.27 1019.75
1009.75 1010.11 1010.10 1009.64 1009.73 1009.52 1009.12 1008.55 1007.87 1008.13 1008.79 1010.56 1011.19 1011.85 1012.29 1012.55 1012.85 1013.20 1013.63 1014.05 1014.58 1015.19 1015.74 1016.43 1017.26 1018.03 1018.48 1018.98 1019.38 1019.56 1019.80 1019.71
1010.04 1010.19 1010.50 1010.14 1010.17 1009.97 1009.37 1008.25 1007.72 1007.90 1008.82 1010.43 1011.42 1012.22 1012.89 1013.21 1013.50 1013.74 1014.13 1014.54 1014.89 1015.46 1015.88 1016.32 1017.07 1018.02 1018.57 1019.14 1019.49 1019.64 1020.01 1020.13
1011.16 1011.09 1011.12 1010.86 1010.59 1010.25 1009.56 1008.77 1008.05 1007.88 1008.47 1009.14 1010.77 1012.04 1013.02 1013.71 1014.20 1014.40 1014.64 1014.96 1015.24 1015.71 1016.31 1016.67 1017.14 1017.79 1018.46 1019.13 1019.21 1019.60 1020.14 1020.48
1011.86 1011.79 1011.45 1011.10 1010.88 1010.35 1009.93 1009.44 1009.08 1008.93 1008.70 1009.55 1011.16 1012.45 1013.41 1014.00 1014.50 1014.94 1015.28 1015.59 1015.80 1016.06 1016.67 1017.00 1017.32 1017.75 1018.42 1018.99 1019.05 1019.72 1020.18 1020.43
1012.10 1012.30 1011.80 1011.41 1011.19 1010.92 1010.68 1010.41 1009.96 1009.54 1009.71 1010.10 1011.56 1012.54 1013.47 1014.25 1014.87 1015.36 1015.89 1016.17 1016.43 1016.81 1017.20 1017.59 1017.59 1018.03 1018.54 1018.90 1019.26 1019.81 1020.14 1020.54
1012.56 1012.65 1011.87 1011.60 1011.89 1011.67 1011.27 1011.08 1010.89 1010.90 1011.08 1011.48 1012.33 1013.25 1014.01 1014.55 1015.22 1015.88 1016.45 1016.90 1017.22 1017.76 1018.22 1018.45 1018.51 1018.68 1018.98 1019.27 1019.74 1020.28 1020.77 1021.21
1013.21 1012.88 1012.52 1012.18 1012.42 1012.48 1012.14 1011.57 1011.74 1011.72 1012.18 1012.89 1013.52 1014.24 1015.20 1015.34 1015.68 1016.38 1017.21 1017.76 1018.21 1018.70 1019.06 1019.36 1019.46 1019.49 1019.60 1020.06 1020.43 1020.82 1021.39 1021.61
1013.85 1013.31 1012.64 1012.81 1012.88 1012.88 1012.96 1012.18 1012.25 1012.62 1012.99 1013.60 1013.95 1014.24 1015.44 1016.13 1016.42 1017.18 1017.90 1018.50 1018.93 1019.44 1019.78 1019.93 1020.38 1020.31 1020.38 1020.92 1021.28 1021.61 1021.90 1021.93
1014.11 1013.86 1013.50 1013.80 1013.41 1013.08 1013.39 1013.97 1013.28 1013.16 1013.74 1014.04 1014.24 1014.56 1015.71 1016.52 1017.23 1017.90 1018.45 1019.04 1019.50 1020.03 1020.54 1020.84 1020.97 1021.10 1021.26 1021.54 1021.89 1022.18 1022.19 1022.34
1015.04 1014.49 1014.46 1014.44 1013.52 1013.89 1014.68 1014.22 1014.19 1014.30 1014.74 1015.19 1015.24 1015.79 1016.54 1017.62 1018.18 1018.84 1019.36 1019.94 1020.51 1020.60 1021.06 1021.53 1021.63 1021.51 1021.84 1022.14 1022.52 1022.68 1022.99 1022.67
1015.86 1015.50 1015.59 1015.56 1015.36 1015.08 1014.98 1015.13 1014.91 1015.16 1015.66 1016.18 1016.36 1017.03 1017.80 1018.71 1019.20 1019.61 1020.00 1020.43 1020.88 1021.23 1021.60 1021.83 1022.04 1022.02 1022.28 1022.87 1022.98 1022.98 1023.23 1023.21
1016.23 1016.33 1016.10 1015.85 1015.55 1015.46 1015.27 1015.39 1015.58 1015.87 1016.54 1017.10 1017.46 1018.23 1018.83 1019.54 1019.96 1020.38 1020.73 1021.00 1021.38 1021.70 1021.99 1022.47 1022.82 1022.99 1023.20 1023.46 1023.67 1023.56 1023.56 1023.78
1016.53 1016.68 1016.64 1016.53 1016.38 1016.31 1016.04 1016.22 1016.11 1016.69 1016.99 1017.68 1018.36 1019.16 1019.64 1020.23 1020.80 1021.48 1021.75 1021.86 1021.88 1022.22 1022.59 1023.12 1023.36 1023.54 1023.76 1023.85 1023.86 1023.90 1024.14 1024.40
1016.60 1016.99 1016.95 1017.05 1016.96 1016.71 1016.65 1016.73 1016.87 1017.26 1017.59 1018.63 1018.78 1019.74 1020.26 1021.13 1021.47 1021.71 1022.55 1022.80 1022.68 1022.83 1023.09 1023.48 1023.65 1023.84 1024.12 1023.94 1024.14 1024.14 1024.29 1024.48
1017.11 1017.24 1017.24 1017.28 1017.24 1017.00 1016.93 1017.34 1017.44 1017.73 1018.16 1018.69 1019.07 1019.13 1020.07 1020.98 1021.32 1022.12 1022.90 1022.98 1023.07 1023.26 1023.55 1023.88 1024.01 1023.98 1024.34 1024.35 1024.66 1024.60 1024.58 1024.62
Wind_Speed
6 5 9 6 9 1 3 0 5 2 3 5 3 3 11 18 17 18 18 17 13 17 16 17 13 15 16 13 11 11 13 10
3 4 3 6 10 10 4 7 8 4 4 3 5 6 11 17 20 18 18 16 15 13 14 10 8 4 8 11 13 12 12 11
3 6 9 6 7 2 6 5 10 7 4 1 6 9 12 13 15 16 17 17 17 15 11 11 8 5 4 7 8 12 12 11
6 3 4 2 5 12 8 10 5 8 4 1 3 7 8 9 9 12 14 14 13 16 14 12 11 5 3 7 7 10 9 8
6 5 3 2 3 1 2 2 12 13 6 3 5 7 8 11 11 11 11 12 12 12 14 14 12 11 6 4 6 4 4 8
6 1 2 4 2 0 5 10 11 8 5 9 11 11 9 9 9 10 10 12 12 11 12 13 14 13 11 10 9 8 8 6
3 5 2 1 1 2 7 8 10 11 8 11 15 14 12 10 8 9 8 9 10 11 10 11 10 10 10 12 9 10 6 5
3 4 2 4 3 5 1 7 10 7 8 5 14 11 12 12 10 9 7 7 9 9 10 10 10 12 12 10 9 10 10 9
5 4 2 6 4 4 3 4 5 7 4 16 17 16 14 11 10 9 8 7 7 7 6 5 6 8 7 9 9 9 9 9
1 3 10 6 5 3 6 1 4 5 2 12 13 12 12 12 10 10 9 7 7 8 9 8 8 10 10 11 11 10 9 7
2 4 3 3 4 6 7 1 4 1 8 12 14 16 8 7 11 10 10 8 9 9 10 10 9 10 11 12 11 11 9 7
3 4 5 5 3 7 4 2 1 3 12 16 16 10 5 9 13 13 12 10 11 10 9 11 7 8 11 10 9 10 8 8
3 2 1 2 16 1 4 6 6 6 10 10 7 3 14 13 13 12 13 12 11 10 9 7 7 8 10 11 10 8 8 7
2 3 1 13 4 4 5 6 3 8 6 5 10 15 16 13 12 13 14 13 10 10 9 7 6 9 10 10 7 7 6 8
3 4 4 6 5 7 4 7 3 5 8 9 14 15 15 12 11 11 12 11 9 10 10 9 7 6 8 6 6 7 7 8
3 3 4 8 7 8 8 1 6 10 10 10 14 12 13 9 9 10 10 10 10 10 10 8 7 7 7 6 5 6 8 7
2 2 3 4 8 7 7 5 11 10 12 12 12 10 11 8 7 6 6 7 7 7 7 7 6 6 6 6 6 7 7 6
2 2 2 3 6 5 4 6 8 11 11 10 12 9 9 6 6 5 3 4 5 6 6 6 6 6 5 5 5 7 7 5
2 3 4 4 6 6 5 4 4 6 10 14 12 13 11 7 6 9 8 8 7 7 6 6 6 5 5 6 6 5 6 6
Wind_Direction
211 161 198 161 209 310 196 95 237 169 246 230 261 238 185 181 183 180 191 185 183 188 189 186 173 185 196 197 208 201 205 205
140 172 127 227 167 196 211 198 222 197 266 237 198 194 180 181 184 182 184 187 173 173 167 150 155 142 193 203 207 205 203 208
246 209 195 175 193 194 237 248 225 221 221 90 178 189 196 188 184 177 179 183 178 173 163 149 164 139 232 211 204 208 201 203
248 79 336 295 252 223 224 192 242 276 220 66 195 178 195 183 177 178 179 178 176 175 171 163 136 104 252 215 208 224 211 198
191 163 146 151 101 60 258 285 209 227 216 135 143 163 186 179 176 168 159 156 161 164 173 170 160 158 150 142 142 113 206 231
252 18 9 177 136 292 239 225 221 239 223 191 181 178 173 175 169 172 166 169 169 165 171 168 163 153 145 140 125 95 75 75
153 142 146 256 89 281 221 243 236 227 220 197 183 180 173 161 152 158 155 174 181 179 177 176 180 180 169 166 145 130 110 95
231 195 231 231 304 339 249 238 256 268 221 191 153 154 154 158 159 159 151 141 144 167 181 182 181 175 180 171 151 144 153 143
242 333 220 233 307 316 306 258 281 232 13 161 162 163 161 156 160 157 152 140 127 117 108 108 120 126 129 133 137 149 145 148
61 248 228 73 34 61 307 328 275 287 201 169 159 143 145 155 151 143 129 109 103 99 100 89 92 94 99 102 100 100 94 90
250 232 354 170 57 7 349 320 0 180 155 133 122 113 104 147 146 142 125 107 108 105 101 96 93 98 101 96 98 100 104 95
173 253 216 74 338 322 278 232 90 196 148 152 158 173 144 146 133 128 119 115 107 101 99 90 77 78 94 92 92 102 107 97
177 244 251 356 317 0 246 38 336 178 168 181 188 4 139 137 119 116 117 111 102 90 86 83 104 109 98 103 92 90 93 95
172 220 231 0 304 356 347 316 303 144 122 99 125 132 124 121 120 118 114 107 104 100 96 92 102 106 98 89 87 87 92 92
316 53 338 331 314 315 329 297 120 139 111 133 134 134 123 119 117 118 116 115 111 106 99 80 67 80 102 100 108 104 96 85
209 102 9 356 6 6 357 295 126 118 124 143 128 119 109 97 121 124 125 122 123 120 108 98 86 87 99 112 117 111 102 102
122 192 165 63 23 1 45 99 111 127 138 135 117 106 118 112 91 112 118 124 124 120 117 117 116 112 120 124 129 118 112 110
53 79 25 44 340 15 88 115 132 134 126 151 126 123 125 144 137 119 150 154 143 134 134 133 129 129 128 124 134 133 131 127
79 124 107 108 54 28 77 103 145 155 157 164 160 160 154 165 170 163 179 184 186 169 151 154 151 144 148 143 151 142 133 124